Location: Unspecified
(35.6961°N, 0.0000°E)
Time: 10:52:30
(UTC+00:00)

Vanguard 3 - Pass Details

Date: 02 June 2019
Orbit: 508 x 3263 km, 33.3° (Epoch: 16 June)

Event Time Altitude Azimuth Distance (km) Brightness Sun altitude
Rises 21:21:19 0° 274° (W) 3,067 10.8 -21.2°
Reaches altitude 10° 21:23:17 10° 270° (W) 2,335 10.0 -21.5°
Maximum altitude 21:28:38 60° 191° (S) 1,224 7.7 -22.1°
Enters shadow 21:31:47 37° 129° (SE) 1,898 8.5 -22.5°
Drops below altitude 10° 21:38:03 10° 114° (ESE) 4,008 - -23.3°
Sets 21:42:25 0° 112° (ESE) 5,476 - -23.8°
